User: anonymous   Login
Location: Unspecified
(0.0000°N, 0.0000°E)
Time: 19:28:33
(UTC+00:00)
Language:

GALILEO 12 (269) - Orbit

View from above orbital plane
View from above orbital plane
View from above satellite
View from above satellite

Ground track
Ground track

The orbit data is extracted from the following two-line orbital elements,

1 41174U 15079A   17293.93847810  .00000005  00000-0  00000+0 0  9995
2 41174  54.9165 188.2424 0004250 302.4698  57.5712  1.70473213 11468
Epoch (UTC): 20 October 2017 22:31:24
Eccentricity: 0.0004250
inclination: 54.9165°
perigee height: 23209 km
apogee height: 23234 km
right ascension of ascending node: 188.2424°
argument of perigee: 302.4698°
revolutions per day: 1.70473213
mean anomaly at epoch: 57.5712°
orbit number at epoch: 1146

The dashed part of the orbit path shows where the satellite is in the earth's shadow,  

DLR